X-CUBESAT (42707 NORAD) Tracking and Keplerian Element Data

This shows tracking and keplerian element data for the satellite.

Feedback or suggestion? Click here.




ElementValue
Catalog42707
NameX-CUBESAT
Epoch Orbit8547
Epoch Day317.41367513
Epoch Year2018
RAAN304.513
Inclination51.6287
Eccentricity0.0004985
Argument of Perigee64.5206
Mean Anonmoly295.6313
Mean Motion15.85484765
Decay Rate0.00086162
L11 42707U 98067LQ 18317.41367513 .00086162 00000-0 34982-3 0 9992
L22 42707 51.6287 304.5130 0004985 64.5206 295.6313 15.85484765 85472

Live tracking and technical data element details for X-CUBESAT (NORAD 42707). X-CUBESAT can be tracked NOW for your location showing map with azimuth and elevation plus other details from your city location.

Track the satellite on the map from your city or location and see movement details for azimuth, elevation, latitude, longitude, range, height, and movement on the map or in text.







IsCatalogInMostPopularTable: catalog: 42707, numindb: 190
Update: records affected: 1



GetName: 42707 X-CUBESAT

Hit Count: updated at: Wed, 14 Nov 2018 16:07:09 GMT